Back to catalog

BREEZE-M R/B

AliveHEO
NORAD 41582·ROCKET BODY·🇷🇺 Russia

Launched Jun 9, 2016 from Baikonur Cosmodrome

Loading…

Next Passes (next 24 hours)

TLE

FreshSource: Space-Track

Epoch: Sep 14, 2026, 10:11 UTC

1 41582U 16035B   26257.42460720 -.00000098  00000-0  00000-0 0  9990
2 41582  30.7718 284.6871 7947193 165.0817 252.9157  1.12667900 42247

Track BREEZE-M R/B in real time with AllMySat

Download on the App Store